CW3065 Weather Reports


time (UTC)temp
F
wind
direction
speed
knots
gust
knots
rain 1hr
in
rain 24hr
in
rain mn
in
humidity
%
barometer
mb
20260505204003 31 119 0.0 0.0 0.01 0.50 0.13 92 1006.5
20260505203503 31 119 0.0 0.0 0.01 0.50 0.13 93 1006.4
20260505203004 30 119 0.0 0.0 0.02 0.50 0.13 93 1006.6
20260505201504 30 109 0.0 0.0 0.01 0.49 0.12 92 1007.0
20260505200004 30 147 0.0 0.0 0.01 0.49 0.12 92 1007.1
20260505195504 30 147 0.0 0.0 0.02 0.49 0.12 91 1007.3
20260505195004 30 147 0.0 0.0 0.02 0.49 0.12 91 1007.0
20260505194004 31 119 0.0 0.0 0.02 0.49 0.12 91 1006.9
20260505193504 31 118 0.0 0.0 0.02 0.49 0.12 91 1006.8
20260505192503 32 59 0.0 0.0 0.01 0.48 0.11 93 1006.9
20260505192003 32 341 0.0 0.0 0.02 0.48 0.11 93 1007.0
20260505191503 32 341 0.0 0.0 0.02 0.48 0.11 93 1007.0
20260505191004 32 341 0.0 0.0 0.02 0.48 0.11 93 1007.0
20260505190504 31 341 0.0 0.0 0.02 0.48 0.11 93 1007.1
20260505190004 31 341 0.0 0.0 0.02 0.48 0.11 93 1007.1
20260505185504 31 341 1.7 2.6 0.02 0.47 0.10 93 1007.0
20260505185004 31 300 0.9 2.6 0.02 0.47 0.10 94 1006.5
20260505184004 30 154 0.0 0.0 0.02 0.47 0.10 93 1006.6
20260505183504 30 154 0.0 2.6 0.02 0.47 0.10 92 1006.6
20260505183004 30 154 1.7 2.6 0.02 0.47 0.10 92 1006.6
20260505182503 30 168 2.6 5.2 0.02 0.47 0.10 91 1006.6
20260505182004 31 134 0.9 2.6 0.01 0.46 0.09 91 1006.5
20260505180504 31 126 2.6 5.2 0.02 0.46 0.09 92 1006.5
20260505180004 31 121 2.6 6.1 0.02 0.46 0.09 91 1006.5
20260505175504 32 113 2.6 5.2 0.01 0.45 0.08 92 1006.3
20260505175004 32 112 2.6 5.2 0.01 0.45 0.08 93 1006.1
20260505174504 32 352 0.0 0.0 0.01 0.45 0.08 94 1006.5
20260505174003 32 352 0.0 0.0 0.02 0.45 0.08 94 1006.5
20260505173503 32 352 0.0 0.0 0.02 0.45 0.08 94 1006.5
20260505173003 31 352 0.9 2.6 0.02 0.45 0.08 93 1006.4
20260505172504 31 352 0.9 2.6 0.02 0.45 0.08 93 1006.4
20260505172004 31 55 0.0 0.0 0.02 0.45 0.08 93 1006.4
20260505171504 31 86 0.0 0.0 0.01 0.44 0.07 93 1006.5
20260505171004 31 86 0.0 1.7 0.01 0.44 0.07 94 1006.5
20260505170504 31 96 0.9 2.6 0.01 0.44 0.07 93 1006.5
20260505170004 31 107 0.9 1.7 0.01 0.44 0.07 93 1006.4
20260505165503 31 107 0.0 0.0 0.01 0.44 0.07 92 1006.4
20260505165004 31 107 0.9 2.6 0.01 0.44 0.07 91 1006.7
20260505164504 32 60 0.0 0.0 0.01 0.44 0.07 92 1006.7
20260505164003 33 48 0.0 0.0 0.00 0.43 0.06 94 1006.3
20260505163503 32 48 0.0 2.6 0.00 0.43 0.06 95 1006.1
20260505163004 32 48 0.0 2.6 0.00 0.43 0.06 94 1006.1
20260505162504 32 48 0.0 1.7 0.00 0.43 0.06 94 1006.1
20260505162003 32 26 0.9 1.7 0.00 0.43 0.06 94 1006.1
20260505161504 31 46 1.7 2.6 0.00 0.43 0.06 94 1006.1
20260505161004 31 36 1.7 2.6 0.00 0.43 0.06 94 1006.2
20260505160504 31 44 1.7 2.6 0.00 0.43 0.06 94 1006.4
20260505153004 31 54 0.9 1.7 0.00 0.43 0.06 94 1006.1
20260505152504 31 44 0.9 1.7 0.00 0.43 0.06 95 1006.1
20260505152003 31 57 1.7 2.6 0.00 0.43 0.06 94 1006.1
20260505151504 31 108 1.7 2.6 0.00 0.43 0.06 95 1005.9
20260505150503 32 50 0.0 2.6 0.00 0.43 0.06 95 1005.9
20260505140503 30 36 1.7 2.6 0.00 0.43 0.06 95 1005.9
20260505125004 29 81 3.5 5.2 0.00 0.43 0.06 95 1005.0
20260505124504 29 69 2.6 5.2 0.00 0.43 0.06 95 1005.0
20260505124004 29 59 1.7 5.2 0.00 0.43 0.06 94 1005.0
20260505123504 29 82 2.6 6.1 0.00 0.43 0.06 95 1004.9
20260505123004 29 72 1.7 5.2 0.00 0.43 0.06 95 1005.0
20260505122503 29 77 3.5 4.3 0.00 0.43 0.06 94 1005.0
20260505122004 29 80 3.5 7.0 0.00 0.43 0.06 94 1004.9
20260505121503 29 81 3.5 6.1 0.00 0.43 0.06 94 1004.7
20260505121004 30 74 2.6 8.7 0.00 0.43 0.06 94 1004.6
20260505120504 30 61 4.3 5.2 0.00 0.43 0.06 94 1004.7
20260505120004 30 52 4.3 8.7 0.00 0.43 0.06 94 1004.6
20260505115504 30 50 4.3 7.8 0.00 0.43 0.06 94 1004.5
20260505115004 30 63 5.2 8.7 0.00 0.43 0.06 94 1004.8
20260505114504 30 54 4.3 10.4 0.00 0.43 0.06 94 1004.7
20260505113504 30 48 4.3 7.8 0.00 0.43 0.06 94 1004.5
20260505113004 31 68 5.2 10.4 0.00 0.43 0.06 94 1004.2
20260505112503 31 65 4.3 10.4 0.00 0.43 0.06 94 1004.2
20260505112004 31 64 5.2 7.8 0.00 0.43 0.06 94 1004.2
20260505111503 31 81 4.3 8.7 0.00 0.43 0.06 95 1004.2
20260505111004 31 81 2.6 6.1 0.00 0.43 0.06 95 1004.2
20260505110504 32 71 4.3 5.2 0.00 0.43 0.06 95 1004.1
20260505101503 32 64 2.6 6.1 0.00 0.43 0.06 95 1004.3
20260505100503 32 84 5.2 10.4 0.01 0.43 0.06 94 1004.3
20260505100003 32 47 3.5 7.0 0.01 0.43 0.06 94 1004.3
20260505095504 32 45 3.5 6.1 0.01 0.43 0.06 94 1004.2
20260505095004 32 40 5.2 8.7 0.01 0.43 0.06 94 1004.2
20260505094504 32 43 6.1 8.7 0.01 0.43 0.06 94 1004.2
20260505094004 33 59 4.3 7.8 0.01 0.43 0.06 94 1004.2
20260505093004 33 62 6.1 10.4 0.01 0.43 0.06 94 1004.0
20260505092503 33 52 4.3 10.4 0.01 0.43 0.06 94 1004.0
20260505091503 34 63 5.2 10.4 0.01 0.43 0.06 94 1004.0
20260505091004 34 57 5.2 10.4 0.02 0.43 0.06 94 1003.9
20260505085504 34 50 5.2 8.7 0.01 0.42 0.05 95 1003.9
20260505085004 34 49 6.1 7.8 0.01 0.42 0.05 94 1003.9
20260505084504 35 54 4.3 8.7 0.01 0.42 0.05 94 1003.9
20260505084004 35 38 4.3 7.8 0.01 0.42 0.05 94 1003.9
20260505083504 35 58 4.3 6.1 0.01 0.42 0.05 94 1003.9
20260505083004 35 51 4.3 7.8 0.02 0.42 0.05 94 1004.0
20260505082004 35 47 5.2 8.7 0.04 0.42 0.05 94 1004.1
20260505081504 36 59 5.2 7.8 0.05 0.42 0.05 94 1004.1
20260505081004 36 54 2.6 6.1 0.04 0.41 0.04 94 1004.0
20260505080504 36 47 5.2 10.4 0.04 0.41 0.04 94 1004.0
20260505075504 37 76 6.1 8.7 0.04 0.41 0.04 94 1004.0
20260505075005 37 77 6.1 10.4 0.04 0.41 0.04 94 1004.0
20260505074504 38 93 4.3 8.7 0.04 0.41 0.04 94 1004.1
20260505074004 38 92 4.3 8.7 0.04 0.41 0.04 95 1004.2
20260505073504 38 113 2.6 6.1 0.04 0.41 0.04 95 1004.3
20260505073003 38 46 0.9 1.7 0.03 0.40 0.03 95 1004.3
20260505071503 38 46 0.9 1.7 0.00 0.37 0.00 95 1004.3
20260505071004 38 46 0.0 0.0 0.00 0.37 0.00 95 1004.3
20260505070504 38 46 0.0 0.0 0.00 0.37 0.00 95 1004.3
20260505070003 38 46 0.0 0.0 0.00 0.37 0.00 95 1004.3
20260505065004 38 46 0.0 0.0 0.00 0.37 0.00 95 1004.3
20260505064503 38 46 0.0 0.0 0.00 0.37 0.00 95 1004.4
20260505064003 38 46 0.0 0.0 0.00 0.37 0.00 95 1004.5
20260505063504 38 46 0.0 0.0 0.00 0.37 0.00 95 1004.5
20260505063003 37 46 0.0 0.0 0.00 0.37 0.00 95 1004.5
20260505062503 37 46 0.0 0.0 0.00 0.37 0.00 95 1004.6
20260505062004 37 46 0.0 0.0 0.00 0.37 0.00 95 1004.6
20260505061003 37 46 0.0 0.0 0.00 0.37 0.00 94 1004.6
20260505060504 37 46 0.0 0.0 0.00 0.37 0.00 94 1004.6
20260505060003 37 46 0.0 0.0 0.00 0.37 0.00 94 1004.6
20260505055503 37 46 0.0 0.0 0.00 0.37 0.37 94 1004.7
20260505054503 37 46 0.0 0.0 0.00 0.37 0.37 94 1004.7
20260505054004 37 46 0.0 0.0 0.00 0.37 0.37 94 1004.6
20260505053004 37 46 0.0 0.0 0.00 0.37 0.37 94 1004.6
20260505052504 37 46 0.0 0.0 0.00 0.37 0.37 94 1004.7
20260505052004 37 46 0.0 0.0 0.00 0.37 0.37 94 1004.6
20260505051504 37 46 0.0 0.0 0.00 0.37 0.37 94 1004.6
20260505051004 37 46 0.0 0.0 0.00 0.37 0.37 93 1004.6
20260505041504 38 46 0.0 0.0 0.00 0.37 0.37 93 1004.6
20260505041004 38 46 0.0 1.7 0.00 0.37 0.37 93 1004.5
20260505040504 38 46 0.9 2.6 0.00 0.37 0.37 93 1004.5
20260505040004 38 61 0.0 0.0 0.00 0.37 0.37 93 1004.5
20260505035504 38 61 0.0 0.0 0.00 0.37 0.37 93 1004.5
20260505035004 39 61 0.9 2.6 0.00 0.37 0.37 93 1004.4
20260505034504 38 61 1.7 2.6 0.00 0.37 0.37 93 1004.4
20260505034004 38 61 1.7 2.6 0.00 0.37 0.37 93 1004.5
20260505033004 38 46 0.9 2.6 0.00 0.37 0.37 92 1004.8
20260505032504 38 46 1.7 2.6 0.00 0.37 0.37 92 1004.6
20260505032004 38 46 2.6 4.3 0.00 0.37 0.37 92 1004.6
20260505031004 38 232 0.0 0.0 0.00 0.37 0.37 92 1004.5
20260505030504 39 232 0.0 0.0 0.00 0.37 0.37 92 1004.4
20260505030004 39 232 0.0 0.0 0.00 0.37 0.37 92 1004.3
20260505025503 39 232 0.0 0.0 0.00 0.37 0.37 92 1004.3
20260505024503 39 232 0.0 2.6 0.01 0.37 0.37 92 1003.9
20260505023504 39 281 0.9 2.6 0.03 0.37 0.37 92 1003.9
20260505022504 39 281 1.7 2.6 0.03 0.37 0.37 92 1003.8
20260505021504 39 280 0.9 2.6 0.04 0.37 0.37 92 1003.8
20260505021004 39 280 0.9 2.6 0.04 0.37 0.37 93 1003.8
20260505020504 39 280 1.7 2.6 0.04 0.37 0.37 92 1003.9
20260505015504 39 209 7.0 10.4 0.06 0.37 0.37 92 1003.5
20260505015004 39 172 5.2 7.8 0.06 0.36 0.36 92 1003.1
20260505014004 39 97 1.7 2.6 0.08 0.35 0.35 92 1003.8
20260505013504 39 97 0.9 1.7 0.08 0.34 0.34 92 1003.9
20260505013003 39 97 0.0 0.0 0.09 0.34 0.34 92 1003.9
20260505012504 39 97 0.0 0.0 0.11 0.34 0.34 91 1003.9
20260505012004 39 97 0.0 0.0 0.12 0.34 0.34 91 1003.9
20260505011504 39 97 0.0 1.7 0.12 0.33 0.33 91 1004.0
20260505010504 39 97 0.9 2.6 0.17 0.33 0.33 91 1004.2
20260505010004 39 97 0.9 1.7 0.17 0.32 0.32 91 1004.4
20260505005504 39 97 1.7 2.6 0.16 0.31 0.31 90 1004.2
20260505005004 39 57 0.9 1.7 0.17 0.30 0.30 90 1004.2
20260505004504 39 57 0.9 1.7 0.20 0.29 0.29 90 1004.1
20260505004004 39 57 1.7 2.6 0.24 0.27 0.27 90 1004.2
20260505003504 39 83 1.7 2.6 0.25 0.26 0.26 89 1004.4
20260505001504 40 58 2.6 4.3 0.20 0.21 0.21 87 1003.9
20260505001004 41 57 2.6 4.3 0.17 0.18 0.18 86 1003.9
20260505000504 41 19 1.7 2.6 0.15 0.16 0.16 84 1003.6
20260505000003 42 355 1.7 2.6 0.14 0.15 0.15 83 1003.6
20260504235504 42 28 3.5 5.2 0.14 0.15 0.15 81 1003.4
20260504235004 43 39 3.5 4.3 0.12 0.13 0.13 77 1003.5
20260504234504 44 271 2.6 12.2 0.08 0.09 0.09 74 1003.4
20260504234004 46 354 7.8 13.0 0.02 0.03 0.03 72 1003.3
20260504233003 47 24 11.3 14.8 0.00 0.01 0.01 63 1002.9
20260504232504 47 74 5.2 13.0 0.00 0.01 0.01 61 1002.7
20260504232004 48 88 6.1 11.3 0.00 0.01 0.01 61 1002.7
20260504231004 47 117 3.5 6.1 0.00 0.01 0.01 62 1002.4
20260504230003 47 141 7.0 10.4 0.00 0.01 0.01 63 1002.3
20260504225504 48 161 5.2 8.7 0.00 0.01 0.01 62 1002.3
20260504225004 48 144 5.2 10.4 0.00 0.01 0.01 60 1001.8
20260504224503 49 132 7.8 13.0 0.00 0.01 0.01 58 1001.6
20260504224004 50 136 9.6 13.0 0.00 0.01 0.01 54 1001.5
20260504223504 50 112 4.3 8.7 0.00 0.01 0.01 53 1001.5
20260504223004 50 129 6.1 10.4 0.00 0.01 0.01 53 1001.4
20260504222504 50 116 5.2 10.4 0.00 0.01 0.01 53 1001.3
20260504222004 50 103 5.2 12.2 0.00 0.01 0.01 55 1001.1
20260504221504 50 87 7.0 13.9 0.00 0.01 0.01 53 1001.0
20260504221004 51 40 8.7 14.8 0.00 0.01 0.01 53 1000.9
20260504220504 51 43 7.8 13.9 0.00 0.01 0.01 53 1000.9
20260504220004 52 44 8.7 14.8 0.00 0.01 0.01 51 1000.8
20260504215504 53 32 11.3 15.6 0.00 0.01 0.01 48 1000.9
20260504215004 54 25 8.7 18.2 0.01 0.01 0.01 47 1001.0
20260504214503 55 25 8.7 15.6 0.01 0.01 0.01 46 1001.0
20260504214004 55 0 10.4 17.4 0.01 0.01 0.01 43 1001.0
20260504213003 55 76 4.3 8.7 0.01 0.01 0.01 46 1001.1
20260504212503 55 61 3.5 10.4 0.01 0.01 0.01 48 1001.0
20260504212004 55 114 7.8 12.2 0.01 0.01 0.01 50 1000.9
20260504211504 54 89 4.3 10.4 0.01 0.01 0.01 52 1001.0
20260504211004 53 130 1.7 6.1 0.01 0.01 0.01 52 1001.4
20260504210504 52 140 5.2 8.7 0.01 0.01 0.01 55 1001.4
20260504210004 52 120 4.3 6.1 0.01 0.01 0.01 58 1001.4
20260504205004 51 175 0.9 2.6 0.00 0.00 0.00 55 1001.2